GW7001 Weather Reports


Display with metric or nautical units.
time (UTC)temp
F
wind
direction
speed
MPH
gust
MPH
rain 1hr
in
rain 24hr
in
rain mn
in
humidity
%
barometer
mb
20260503220003 53 0.0 0.0 0.00 0.00 0.00 1009.1
20260503215504 53 0.0 0.0 0.00 0.00 0.00 1009.0
20260503215004 54 0.0 0.0 0.00 0.00 0.00 1009.0
20260503214503 54 0.0 0.0 0.00 0.00 0.00 1009.1
20260503214004 54 0.0 0.0 0.00 0.00 0.00 1009.1
20260503213503 54 0.0 0.0 0.00 0.00 0.00 1009.0
20260503213005 55 0.0 0.0 0.00 0.00 0.00 1009.2
20260503212504 55 0.0 0.0 0.00 0.00 0.00 1009.2
20260503212004 55 0.0 0.0 0.00 0.00 0.00 1009.2
20260503211503 55 0.0 0.0 0.00 0.00 0.00 1009.2
20260503211005 55 0.0 0.0 0.00 0.00 0.00 1009.1
20260503205503 56 0.0 0.0 0.00 0.00 0.00 1009.1
20260503205003 57 0.0 0.0 0.00 0.00 0.00 1009.0
20260503204503 57 0.0 0.0 0.00 0.00 0.00 1009.0
20260503204003 58 0.0 0.0 0.00 0.00 0.00 1009.0
20260503203504 59 0.0 0.0 0.00 0.00 0.00 1008.8
20260503202504 59 0.0 0.0 0.00 0.00 0.00 1008.5
20260503202003 59 0.0 0.0 0.00 0.00 0.00 1008.5
20260503201503 58 0.0 0.0 0.00 0.00 0.00 1008.6
20260503201005 58 0.0 0.0 0.00 0.00 0.00 1008.6
20260503200003 59 0.0 0.0 0.00 0.00 0.00 1008.8
20260503195503 60 0.0 0.0 0.00 0.00 0.00 1008.8
20260503195003 60 0.0 0.0 0.00 0.00 0.00 1008.7
20260503193003 61 0.0 0.0 0.00 0.00 0.00 1008.9
20260503192503 61 0.0 0.0 0.00 0.00 0.00 1008.9
20260503192003 62 0.0 0.0 0.00 0.00 0.00 1008.9
20260503191503 62 0.0 0.0 0.00 0.00 0.00 1008.9
20260503191003 62 0.0 0.0 0.00 0.00 0.00 1008.9
20260503190504 62 0.0 0.0 0.00 0.00 0.00 1008.9
20260503190004 62 0.0 0.0 0.00 0.00 0.00 1008.9
20260503185504 63 0.0 0.0 0.00 0.00 0.00 1008.8
20260503185004 63 0.0 0.0 0.00 0.00 0.00 1009.0
20260503184503 63 0.0 0.0 0.00 0.00 0.00 1009.0
20260503184004 62 0.0 0.0 0.00 0.00 0.00 1009.1
20260503183505 61 0.0 0.0 0.00 0.00 0.00 1009.3
20260503183003 61 0.0 0.0 0.00 0.00 0.00 1009.3
20260503182505 62 0.0 0.0 0.00 0.00 0.00 1009.5
20260503182004 62 0.0 0.0 0.00 0.00 0.00 1009.6
20260503175004 60 0.0 0.0 0.00 0.00 0.00 1010.0
20260503174503 60 0.0 0.0 0.00 0.00 0.00 1009.9
20260503174003 60 0.0 0.0 0.00 0.00 0.00 1010.2
20260503173503 59 0.0 0.0 0.00 0.00 0.00 1010.1
20260503172004 59 0.0 0.0 0.00 0.00 0.00 1010.5
20260503171003 58 0.0 0.0 0.00 0.00 0.00 1010.7
20260503151003 50 0.0 0.0 0.00 0.00 0.00 1012.5
20260503150503 50 0.0 0.0 0.00 0.00 0.00 1012.7
20260503131003 44 0.0 0.0 0.00 0.00 0.00 1013.5
20260503130503 43 0.0 0.0 0.00 0.00 0.00 1013.7
20260503110503 37 0.0 0.0 0.00 0.00 0.00 1013.4
20260503090504 38 0.0 0.0 0.00 0.00 0.00 1013.8
20260503081503 37 0.0 0.0 0.00 0.00 0.00 1014.0
20260503081003 37 0.0 0.0 0.00 0.00 0.00 1014.0
20260503080504 37 0.0 0.0 0.00 0.00 0.00 1014.1
20260503072503 37 0.0 0.0 0.00 0.00 0.00 1014.2
20260503072003 37 0.0 0.0 0.00 0.00 0.00 1014.2
20260503071503 37 0.0 0.0 0.00 0.00 0.00 1014.2
20260503055003 38 0.0 0.0 0.00 0.00 0.00 1014.6
20260503054503 37 0.0 0.0 0.00 0.00 0.00 1014.7
20260503053503 38 0.0 0.0 0.00 0.00 0.00 1014.7
20260503053003 38 0.0 0.0 0.00 0.00 0.00 1014.8
20260503052505 38 0.0 0.0 0.00 0.00 0.00 1014.8
20260503052004 38 0.0 0.0 0.00 0.00 0.00 1014.9
20260503051503 38 0.0 0.0 0.00 0.00 0.00 1014.9
20260503051003 39 0.0 0.0 0.00 0.00 0.00 1014.9
20260503050503 39 0.0 0.0 0.00 0.00 0.00 1014.9
20260503050004 39 0.0 0.0 0.00 0.00 0.00 1014.9
20260503045504 39 0.0 0.0 0.00 0.00 0.00 1014.9
20260503044004 38 0.0 0.0 0.00 0.00 0.00 1014.9
20260503043503 39 0.0 0.0 0.00 0.00 0.00 1015.0
20260503043003 39 0.0 0.0 0.00 0.00 0.00 1015.0
20260503041503 39 0.0 0.0 0.00 0.00 0.00 1015.1
20260503041004 39 0.0 0.0 0.00 0.00 0.00 1015.1
20260503040503 39 0.0 0.0 0.00 0.00 0.00 1015.1
20260503040002 39 0.0 0.0 0.00 0.00 0.00 1015.2
20260503035003 40 0.0 0.0 0.00 0.00 0.00 1015.2
20260503034503 40 0.0 0.0 0.00 0.00 0.00 1015.1
20260503033503 40 0.0 0.0 0.00 0.00 0.00 1015.2
20260503031004 41 0.0 0.0 0.00 0.00 0.00 1015.2
20260503030503 41 0.0 0.0 0.00 0.00 0.00 1015.3
20260503030003 41 0.0 0.0 0.00 0.00 0.00 1015.2
20260503025503 41 0.0 0.0 0.00 0.00 0.00 1015.3
20260503024503 41 0.0 0.0 0.00 0.00 0.00 1015.4
20260503024004 41 0.0 0.0 0.00 0.00 0.00 1015.4
20260503023503 41 0.0 0.0 0.00 0.00 0.00 1015.4
20260503023003 42 0.0 0.0 0.00 0.00 0.00 1015.5
20260503022505 42 0.0 0.0 0.00 0.00 0.00 1015.5
20260503022004 42 0.0 0.0 0.00 0.00 0.00 1015.5
20260503021505 42 0.0 0.0 0.00 0.00 0.00 1015.5
20260503021006 42 0.0 0.0 0.00 0.00 0.00 1015.5
20260503020004 43 0.0 0.0 0.00 0.00 0.00 1015.4
20260503015503 43 0.0 0.0 0.00 0.00 0.00 1015.4
20260503015003 43 0.0 0.0 0.00 0.00 0.00 1015.4
20260503014504 43 0.0 0.0 0.00 0.00 0.00 1015.4
20260503014003 44 0.0 0.0 0.00 0.00 0.00 1015.3
20260503013503 44 0.0 0.0 0.00 0.00 0.00 1015.4
20260503012503 44 0.0 0.0 0.00 0.00 0.00 1015.3
20260503012003 44 0.0 0.0 0.00 0.00 0.00 1015.3
20260503010504 45 0.0 0.0 0.00 0.00 0.00 1015.3
20260503010003 45 0.0 0.0 0.00 0.00 0.00 1015.3
20260503005503 46 0.0 0.0 0.00 0.00 0.00 1015.3
20260503005004 46 0.0 0.0 0.00 0.00 0.00 1015.2
20260503003503 46 0.0 0.0 0.00 0.00 0.00 1015.1
20260503002503 46 0.0 0.0 0.00 0.00 0.00 1015.1
20260503002003 46 0.0 0.0 0.00 0.00 0.00 1015.1
20260503001503 46 0.0 0.0 0.00 0.00 0.00 1015.1
20260503001004 47 0.0 0.0 0.00 0.00 0.00 1015.2
20260503000504 47 0.0 0.0 0.00 0.00 0.00 1015.2
20260502235503 47 0.0 0.0 0.00 0.00 0.00 1015.2
20260502235004 47 0.0 0.0 0.00 0.00 0.00 1015.1
20260502234504 47 0.0 0.0 0.00 0.00 0.00 1015.1
20260502234003 47 0.0 0.0 0.00 0.00 0.00 1015.2
20260502233003 47 0.0 0.0 0.00 0.00 0.00 1015.1
20260502232503 47 0.0 0.0 0.00 0.00 0.00 1015.2
20260502232003 47 0.0 0.0 0.00 0.00 0.00 1015.2
20260502231502 47 0.0 0.0 0.00 0.00 0.00 1015.1
20260502231003 47 0.0 0.0 0.00 0.00 0.00 1015.2
20260502230004 48 0.0 0.0 0.00 0.00 0.00 1015.2
20260502225503 48 0.0 0.0 0.00 0.00 0.00 1015.1
20260502225003 48 0.0 0.0 0.00 0.00 0.00 1015.2
20260502224003 48 0.0 0.0 0.00 0.00 0.00 6.9
20260502223503 48 0.0 0.0 0.00 0.00 0.00 1015.1
20260502223004 47 0.0 0.0 0.00 0.00 0.00 1015.1
20260502222503 48 0.0 0.0 0.00 0.00 0.00 1015.1
20260502222003 48 0.0 0.0 0.00 0.00 0.00 1015.1
20260502221504 48 0.0 0.0 0.00 0.00 0.00 1015.1
20260502221003 49 0.0 0.0 0.00 0.00 0.00 1015.1
20260502220506 48 0.0 0.0 0.00 0.00 0.00 1015.1